SCP
0 0 0 0 0 0 0 0 0 0 0 0 0 0 0 0 0 0 0 0 0 0 0 0 0 0 0 0 0 0 0 0 0 0 0 0 0 0 0 0 0 0 0
0 0 0 0 0 0 0 0 0 0 0 0 0 0 0 0 0 0 0 0 0 0 0 0 0 0 0 0 0 0 0 0 0 0 0 0 0 0 0 0 0 0 0
0 0 0 0 0 0 0 0 0 0 0 0 0 0 0 0 0 0 0 0 0 0 0 0 0 0 0 0 0 0 0 0 0 0 0 0 0 0 0 0 0 0 0
0 0 0 0 0 0 0 0 0 0 0 0 0 0 0 0 0 0 0 0 0 0 0 0 0 0 0 0 0 0 0 0 0 0 0 0 0 0 0 0 0 0 0
0 0 0 0 0 0 0 0 0 0 0 0 0 0 0 0 0 0 0 0 0 0 0 0 0 0 0 0 0 0 0 0 0 0 0 0 0 0 0 0 0 0 0
0 0 0 0 0 0 0 0 0 0 0 0 0 0 0 0 0 0 0 0 0 0 0 0 0 0 0 0 0 0 0 0 0 0 0 0 0 0 0 0 0 0 0
0 0 0 0 0 0 0 0 0 0 0 0 0 0 0 0 0 0 0 0 0 0 0 0 0 0 0 0 0 0 0 0 0 0 0 0 0 0 0 0 0 0 0
0 0 0 0 0 0 0 0 0 0 0 0 0 0 0 0 0 0 0 0 0 0 0 0 0 0 0 0 0 0 0 0 0 0 0 0 0 0 0 0 0 0 0
0 0 0 0 0 0 0 0 0 0 0 0 0 0 0 0 0 0 0 0 0 0 0 0 0 0 0 0 0 0 0 0 0 0 0 0 0 0 0 0 0 0 0
0 0 0 0 0 0 0 0 0 0 0 0 0 0 0 0 0 0 0 0 0 0 0 0 0 0 0 0 0 0 0 0 0 0 0 0 0 0 0 0 0 0 0
0 0 0 0 0 0 0 0 0 0 0 0 0 0 0 0 0 0 0 0 0 0 0 0 0 0 0 0 0 0 0 0 0 0 0 0 0 0 0 0 0 0 0
0 0 0 0 0 0 0 0 0 0 0 0 0 0 0 0 0 0 0 0 0 0 0 0 0 0 0 0 0 0 0 0 0 0 0 0 0 0 0 0 0 0 0
0 0 0 0 0 0 0 0 0 0 0 0 0 0 0 0 0 0 0 0 0 0 0 0 0 0 0 0 0 0 0 0 0 0 0 0 0 0 0 0 0 0 0
0 0 0 0 0 0 0 0 0 0 0 0 0 0 0 0 0 0 0 0 0 0 0 0 0 0 0 0 0 0 0 0 0 0 0 0 0 0 0 0 0 0 0
0 0 0 0 0 0 0 0 0 0 0 0 0 0 0 0 0 0 0 0 0 0 0 0 0 0 0 0 0 0 0 0 0 0 0 0 0 0 0 0 0 0 0
0 0 0 0 0 0 0 0 0 0 0 0 0 0 0 0 0 0 0 0 0 0 0 0 0 0 0 0 0 0 0 0 0 0 0 0 0 0 0 0 0 0 0
0 0 0 0 0 0 0 0 0 0 0 0 0 0 0 0 0 0 0 0 0 0 0 0 0 0 0 0 0 0 0 0 0 0 0 0 0 0 0 0 0 0 0
0 0 0 0 0 0 0 0 0 0 0 0 0 0 0 0 0 0 0 0 0 0 0 0 0 0 0 0 0 0 0 0 0 0 0 0 0 0 0 0 0 0 0
0 0 0 0 0 0 0 0 0 0 0 0 0 0 0 0 0 0 0 0 0 0 0 0 0 0 0 0 0 0 0 0 0 0 0 0 0 0 0 0 0 0 0
0 0 0 0 0 0 0 0 0 0 0 0 0 0 0 0 0 0 0 0 0 0 0 0 0 0 0 0 0 0 0 0 0 0 0 0 0 0 0 0 0 0 0
0 0 0 0 0 0 0 0 0 0 0 0 0 0 0 0 0 0 0 0 0 0 0 0 0 0 0 0 0 0 0 0 0 0 0 0 0 0 0 0 0 0 0
0 0 0 0 0 0 0 0 0 0 0 0 0 0 0 0 0 0 0 0 0 0 0 0 0 0 0 0 0 0 0 0 0 0 0 0 0 0 0 0 0 0 0
0 0 0 0 0 0 0 0 0 0 0 0 0 0 0 0 0 0 0 0 0 0 0 0 0 0 0 0 0 0 0 0 0 0 0 0 0 0 0 0 0 0 0
0 0 0 0 0 0 0 0 0 0 0 0 0 0 0 0 0 0 0 0 0 0 0 0 0 0 0 0 0 0 0 0 0 0 0 0 0 0 0 0 -0 0 0
0 0 0 0 0 0 0 0 0 0 0 0 0 0 0 0 0 0 0 0 0 0 0 0 0 0 0 0 0 0 0 0 0 0 0 0 0 0 0 -0 -0 0 0
0 0 0 0 0 0 0 0 0 0 0 0 0 0 0 0 0 0 0 0 0 0 0 0 0 0 0 0 0 0 0 0 0 0 0 0 0 0 0 0 0 0 0
Wind_Speed_500mb
9 6 7 10 10 9 10 12 12 12 13 14 15 16 16 16 16 18 18 20 21 20 20 20 21 21 19 18 20 23 25 23 25 27 26 28 23 28 29 30 31 33 35
16 13 11 11 11 11 13 12 12 13 13 15 15 17 18 20 21 21 21 19 18 21 24 22 20 18 17 21 25 27 24 20 18 20 19 22 23 26 28 31 34 36 37
21 19 18 17 13 13 15 14 14 14 15 17 16 18 21 21 19 16 13 16 21 23 21 19 19 20 19 17 17 17 20 20 21 21 24 24 26 27 31 33 34 35 36
25 25 23 21 18 19 18 17 18 18 19 20 18 19 20 16 13 12 13 18 21 17 14 14 14 14 13 13 17 20 21 20 21 23 24 28 31 36 37 38 39 39 38
21 22 19 18 21 21 20 18 18 19 18 19 22 24 23 21 19 17 15 11 9 10 9 7 6 8 11 16 20 21 20 20 21 24 27 32 36 38 39 39 41 41 43
26 26 25 23 21 23 23 23 22 22 23 25 28 30 20 18 18 11 7 7 7 7 2 3 5 9 15 19 20 23 27 23 31 31 30 33 35 41 44 41 42 40 46
31 32 32 29 29 30 28 29 29 28 28 28 31 33 17 11 2 12 8 2 4 4 3 6 10 17 21 24 24 27 30 34 37 36 32 36 37 41 39 42 42 53 62
36 37 35 34 33 36 37 37 37 37 36 32 30 31 11 4 17 9 8 4 10 9 13 16 21 25 28 32 33 34 30 34 32 35 38 38 46 43 39 48 50 55 59
42 42 41 39 39 40 43 44 43 43 41 34 33 24 12 5 9 10 10 6 14 21 18 21 25 28 28 30 37 28 28 24 28 33 41 54 53 55 37 54 59 61 68
49 47 45 47 46 47 48 47 45 49 46 44 42 41 38 32 18 14 8 16 32 21 21 25 24 30 32 31 25 31 32 38 40 46 51 48 45 54 53 57 62 63 66
47 50 51 51 52 50 50 50 50 48 52 53 52 53 47 40 37 41 35 24 21 27 27 26 28 27 24 30 29 38 43 46 45 48 50 48 55 54 59 63 67 66 58
37 47 51 52 51 54 54 53 51 55 55 58 60 61 62 56 50 47 46 39 33 29 22 22 23 28 27 26 32 42 41 48 51 51 54 61 65 66 66 66 62 60 60
44 50 53 53 55 56 57 57 58 59 65 70 72 74 72 73 56 54 57 45 38 27 17 15 23 30 34 29 42 33 45 53 53 57 62 67 68 65 60 59 59 58 57
51 52 56 59 60 61 59 61 65 67 76 62 71 71 77 61 38 46 33 22 21 9 15 19 28 28 36 34 34 45 49 53 58 61 62 57 55 57 56 55 54 52 50
55 57 58 58 57 57 51 51 46 52 54 48 20 20 13 41 38 19 15 22 23 14 15 21 24 32 35 39 46 50 48 52 60 51 52 52 46 44 47 49 47 47 46
39 42 42 41 38 32 35 40 29 24 19 20 23 24 14 8 18 27 16 19 21 17 22 25 30 32 39 42 46 51 47 46 48 45 43 41 39 41 43 44 43 44 45
27 29 19 18 18 16 15 13 15 13 8 4 5 8 5 7 14 17 14 14 16 16 21 25 28 33 35 37 39 42 43 42 42 44 41 39 41 41 41 44 44 46 48
17 14 16 10 9 9 10 7 8 7 2 4 2 2 1 1 4 7 9 11 13 14 16 21 25 29 32 35 35 35 35 37 36 38 36 38 40 42 42 44 47 49 49
8 7 7 5 4 6 5 5 5 5 5 4 5 3 3 3 6 9 11 13 17 19 20 20 23 26 28 29 28 28 30 32 35 34 32 36 41 42 39 43 47 48 48
10 10 9 8 9 11 10 8 8 6 6 4 4 5 6 8 11 14 16 18 18 19 19 20 21 24 26 28 31 31 27 30 34 34 28 39 45 43 40 46 46 46 45
13 14 14 15 15 15 15 12 7 4 1 4 6 8 10 13 14 16 18 18 18 19 18 19 20 22 25 29 33 37 39 37 40 40 38 42 50 45 42 44 45 41 40
19 18 16 14 12 11 7 4 3 5 7 9 10 11 13 15 17 18 18 19 18 17 17 17 19 23 28 31 36 40 43 49 49 46 63 49 56 45 49 47 45 36 47
15 12 11 10 7 5 6 5 7 8 10 10 12 13 15 16 17 17 17 17 17 16 16 19 22 25 30 34 38 41 43 46 50 56 65 69 56 59 58 55 45 27 61
10 9 9 8 7 6 7 8 9 11 10 11 11 12 13 14 15 14 15 17 19 20 20 22 25 28 33 39 40 45 49 53 52 54 62 71 67 76 74 62 32 47 60
8 7 7 7 6 7 7 7 8 10 10 10 11 11 12 13 14 13 15 18 20 23 24 28 31 33 36 40 44 45 48 55 62 61 59 62 74 86 90 71 48 76 75
4 4 5 7 9 10 9 9 10 12 12 12 11 11 12 13 17 16 18 19 20 21 23 25 27 31 34 37 43 46 50 53 57 62 53 72 74 74 78 73 92 83 79
Wind_Direction_500mb
223 242 230 229 238 260 286 294 272 267 269 277 287 293 300 304 304 305 309 314 313 315 318 318 314 316 321 321 320 314 314 319 310 309 317 308 314 307 311 312 315 314 312
239 239 240 244 256 275 274 284 271 274 274 276 281 290 298 302 305 312 311 310 310 307 310 311 307 312 317 314 313 313 309 310 316 316 313 313 315 314 314 318 317 315 315
247 249 247 244 250 268 265 272 276 272 273 277 279 289 295 300 310 312 318 324 316 311 314 317 311 313 315 319 313 316 324 335 329 320 314 320 322 325 327 323 320 317 320
255 254 252 250 250 263 264 266 274 279 279 284 287 291 291 323 332 309 314 323 331 333 329 319 322 327 331 325 325 327 331 325 313 315 320 326 327 323 326 324 322 320 320
265 264 267 262 259 265 269 268 273 276 283 289 295 301 300 307 309 301 306 327 1 12 20 35 16 334 333 336 340 339 336 327 319 326 326 322 314 320 324 323 322 324 322
254 260 261 266 265 259 262 260 261 264 273 281 291 295 306 305 302 296 300 112 35 17 339 43 13 340 338 340 346 350 336 337 338 325 324 330 330 329 327 321 323 324 323
251 258 262 265 263 263 268 268 271 271 274 283 289 291 314 301 281 133 117 91 34 330 240 283 311 317 315 313 313 321 313 317 322 328 322 313 321 317 319 315 314 324 322
253 258 262 266 270 269 267 267 267 269 270 272 272 292 306 298 166 179 347 242 287 314 286 282 290 290 290 294 291 294 285 292 301 313 315 312 317 310 311 311 308 319 319
258 261 263 265 268 269 269 268 269 268 270 264 265 259 274 267 264 262 291 222 298 307 305 303 308 307 307 295 297 284 287 290 300 308 312 314 313 305 316 313 316 317 315
261 263 264 266 267 268 268 269 270 265 262 259 258 258 254 261 267 285 229 253 299 289 295 302 301 300 303 293 288 300 301 304 311 313 313 317 307 308 316 315 315 317 318
260 264 268 268 271 270 271 270 269 269 262 258 255 259 258 260 258 258 275 272 267 273 283 292 300 297 291 302 302 308 310 314 318 316 316 311 317 315 313 316 318 318 316
262 258 262 266 269 271 269 273 271 269 268 262 260 257 252 249 253 251 253 259 272 265 274 285 297 293 295 289 299 308 309 313 316 314 311 315 315 314 315 316 315 315 312
258 254 260 263 264 267 268 269 269 267 265 264 262 258 254 246 240 256 257 243 246 243 237 251 285 287 286 296 300 301 312 313 308 309 312 312 312 314 316 315 315 315 316
263 259 257 259 262 265 267 268 268 267 259 262 278 250 243 241 239 240 244 267 247 241 262 271 281 283 289 292 295 309 312 310 311 313 309 311 314 314 315 317 317 319 319
268 262 267 266 270 274 278 283 287 282 277 295 249 289 282 287 299 270 264 262 270 273 263 270 275 288 287 294 305 308 311 310 308 314 315 320 320 321 322 322 322 321 321
261 266 267 275 274 276 271 278 281 246 263 215 264 278 297 269 287 276 266 294 282 275 265 265 273 275 287 295 299 301 307 313 316 323 323 323 322 323 324 324 325 324 324
266 261 256 276 285 263 269 249 256 261 245 183 168 242 257 266 290 280 291 292 277 267 256 260 271 282 289 295 304 310 314 318 320 321 322 321 322 324 323 323 324 325 324
233 235 270 249 260 264 257 246 265 253 257 277 262 291 350 4 292 296 307 301 300 304 295 290 290 292 297 303 310 317 319 321 322 320 317 315 324 327 326 326 326 325 322
153 174 155 161 184 222 207 198 189 173 146 148 108 92 23 339 313 321 320 314 314 312 308 302 300 303 310 315 317 321 324 324 324 325 318 317 323 325 325 325 324 322 318
150 154 153 175 168 160 143 145 126 99 82 78 35 354 347 337 333 327 322 325 328 327 326 323 318 317 317 319 323 324 323 330 328 327 320 321 323 327 327 324 323 320 317
149 139 134 136 137 129 126 115 115 107 37 339 346 343 341 339 339 340 338 337 336 331 326 321 319 321 323 326 332 337 336 335 331 324 321 327 324 327 329 328 327 322 319
120 116 117 115 120 134 124 114 54 10 355 351 348 346 348 347 343 338 338 332 331 334 335 334 335 333 333 335 335 336 335 338 339 331 323 333 326 327 332 334 332 322 330
110 110 107 102 99 94 67 39 15 360 352 347 347 345 342 340 338 337 337 333 339 342 337 336 335 334 332 332 334 335 335 335 333 332 326 325 328 327 332 336 335 320 335
101 93 85 76 63 53 38 23 4 348 340 332 327 327 327 332 334 336 335 338 337 335 336 333 334 334 331 329 333 332 331 330 328 326 328 322 331 328 331 338 346 334 336
96 83 70 54 38 22 6 349 331 327 316 316 319 325 332 336 342 339 335 334 334 333 333 330 329 330 329 325 326 327 326 327 327 331 331 325 330 327 329 336 339 338 336
76 34 1 340 330 326 320 310 307 315 318 322 327 332 335 330 329 339 341 334 333 328 326 324 325 325 324 322 324 326 327 326 325 329 333 324 327 334 329 324 325 335 334
Wind_Speed_850mb
9 6 7 10 10 9 10 12 12 12 13 14 15 16 16 16 16 18 18 20 21 20 20 20 21 21 19 18 20 23 25 23 25 27 26 28 23 28 29 30 31 33 35
16 13 11 11 11 11 13 12 12 13 13 15 15 17 18 20 21 21 21 19 18 21 24 22 20 18 17 21 25 27 24 20 18 20 19 22 23 26 28 31 34 36 37
21 19 18 17 13 13 15 14 14 14 15 17 16 18 21 21 19 16 13 16 21 23 21 19 19 20 19 17 17 17 20 20 21 21 24 24 26 27 31 33 34 35 36
25 25 23 21 18 19 18 17 18 18 19 20 18 19 20 16 13 12 13 18 21 17 14 14 14 14 13 13 17 20 21 20 21 23 24 28 31 36 37 38 39 39 38
21 22 19 18 21 21 20 18 18 19 18 19 22 24 23 21 19 17 15 11 9 10 9 7 6 8 11 16 20 21 20 20 21 24 27 32 36 38 39 39 41 41 43
26 26 25 23 21 23 23 23 22 22 23 25 28 30 20 18 18 11 7 7 7 7 2 3 5 9 15 19 20 23 27 23 31 31 30 33 35 41 44 41 42 40 46
31 32 32 29 29 30 28 29 29 28 28 28 31 33 17 11 2 12 8 2 4 4 3 6 10 17 21 24 24 27 30 34 37 36 32 36 37 41 39 42 42 53 62
36 37 35 34 33 36 37 37 37 37 36 32 30 31 11 4 17 9 8 4 10 9 13 16 21 25 28 32 33 34 30 34 32 35 38 38 46 43 39 48 50 55 59
42 42 41 39 39 40 43 44 43 43 41 34 33 24 12 5 9 10 10 6 14 21 18 21 25 28 28 30 37 28 28 24 28 33 41 54 53 55 37 54 59 61 68
49 47 45 47 46 47 48 47 45 49 46 44 42 41 38 32 18 14 8 16 32 21 21 25 24 30 32 31 25 31 32 38 40 46 51 48 45 54 53 57 62 63 66
47 50 51 51 52 50 50 50 50 48 52 53 52 53 47 40 37 41 35 24 21 27 27 26 28 27 24 30 29 38 43 46 45 48 50 48 55 54 59 63 67 66 58
37 47 51 52 51 54 54 53 51 55 55 58 60 61 62 56 50 47 46 39 33 29 22 22 23 28 27 26 32 42 41 48 51 51 54 61 65 66 66 66 62 60 60
44 50 53 53 55 56 57 57 58 59 65 70 72 74 72 73 56 54 57 45 38 27 17 15 23 30 34 29 42 33 45 53 53 57 62 67 68 65 60 59 59 58 57
51 52 56 59 60 61 59 61 65 67 76 62 71 71 77 61 38 46 33 22 21 9 15 19 28 28 36 34 34 45 49 53 58 61 62 57 55 57 56 55 54 52 50
55 57 58 58 57 57 51 51 46 52 54 48 20 20 13 41 38 19 15 22 23 14 15 21 24 32 35 39 46 50 48 52 60 51 52 52 46 44 47 49 47 47 46
39 42 42 41 38 32 35 40 29 24 19 20 23 24 14 8 18 27 16 19 21 17 22 25 30 32 39 42 46 51 47 46 48 45 43 41 39 41 43 44 43 44 45
27 29 19 18 18 16 15 13 15 13 8 4 5 8 5 7 14 17 14 14 16 16 21 25 28 33 35 37 39 42 43 42 42 44 41 39 41 41 41 44 44 46 48
17 14 16 10 9 9 10 7 8 7 2 4 2 2 1 1 4 7 9 11 13 14 16 21 25 29 32 35 35 35 35 37 36 38 36 38 40 42 42 44 47 49 49
8 7 7 5 4 6 5 5 5 5 5 4 5 3 3 3 6 9 11 13 17 19 20 20 23 26 28 29 28 28 30 32 35 34 32 36 41 42 39 43 47 48 48
10 10 9 8 9 11 10 8 8 6 6 4 4 5 6 8 11 14 16 18 18 19 19 20 21 24 26 28 31 31 27 30 34 34 28 39 45 43 40 46 46 46 45
13 14 14 15 15 15 15 12 7 4 1 4 6 8 10 13 14 16 18 18 18 19 18 19 20 22 25 29 33 37 39 37 40 40 38 42 50 45 42 44 45 41 40
19 18 16 14 12 11 7 4 3 5 7 9 10 11 13 15 17 18 18 19 18 17 17 17 19 23 28 31 36 40 43 49 49 46 63 49 56 45 49 47 45 36 47
15 12 11 10 7 5 6 5 7 8 10 10 12 13 15 16 17 17 17 17 17 16 16 19 22 25 30 34 38 41 43 46 50 56 65 69 56 59 58 55 45 27 61
10 9 9 8 7 6 7 8 9 11 10 11 11 12 13 14 15 14 15 17 19 20 20 22 25 28 33 39 40 45 49 53 52 54 62 71 67 76 74 62 32 47 60
8 7 7 7 6 7 7 7 8 10 10 10 11 11 12 13 14 13 15 18 20 23 24 28 31 33 36 40 44 45 48 55 62 61 59 62 74 86 90 71 48 76 75
4 4 5 7 9 10 9 9 10 12 12 12 11 11 12 13 17 16 18 19 20 21 23 25 27 31 34 37 43 46 50 53 57 62 53 72 74 74 78 73 92 83 79
Wind_Direction_850mb
223 242 230 229 238 260 286 294 272 267 269 277 287 293 300 304 304 305 309 314 313 315 318 318 314 316 321 321 320 314 314 319 310 309 317 308 314 307 311 312 315 314 312
239 239 240 244 256 275 274 284 271 274 274 276 281 290 298 302 305 312 311 310 310 307 310 311 307 312 317 314 313 313 309 310 316 316 313 313 315 314 314 318 317 315 315
247 249 247 244 250 268 265 272 276 272 273 277 279 289 295 300 310 312 318 324 316 311 314 317 311 313 315 319 313 316 324 335 329 320 314 320 322 325 327 323 320 317 320
255 254 252 250 250 263 264 266 274 279 279 284 287 291 291 323 332 309 314 323 331 333 329 319 322 327 331 325 325 327 331 325 313 315 320 326 327 323 326 324 322 320 320
265 264 267 262 259 265 269 268 273 276 283 289 295 301 300 307 309 301 306 327 1 12 20 35 16 334 333 336 340 339 336 327 319 326 326 322 314 320 324 323 322 324 322
254 260 261 266 265 259 262 260 261 264 273 281 291 295 306 305 302 296 300 112 35 17 339 43 13 340 338 340 346 350 336 337 338 325 324 330 330 329 327 321 323 324 323
251 258 262 265 263 263 268 268 271 271 274 283 289 291 314 301 281 133 117 91 34 330 240 283 311 317 315 313 313 321 313 317 322 328 322 313 321 317 319 315 314 324 322
253 258 262 266 270 269 267 267 267 269 270 272 272 292 306 298 166 179 347 242 287 314 286 282 290 290 290 294 291 294 285 292 301 313 315 312 317 310 311 311 308 319 319
258 261 263 265 268 269 269 268 269 268 270 264 265 259 274 267 264 262 291 222 298 307 305 303 308 307 307 295 297 284 287 290 300 308 312 314 313 305 316 313 316 317 315
261 263 264 266 267 268 268 269 270 265 262 259 258 258 254 261 267 285 229 253 299 289 295 302 301 300 303 293 288 300 301 304 311 313 313 317 307 308 316 315 315 317 318
260 264 268 268 271 270 271 270 269 269 262 258 255 259 258 260 258 258 275 272 267 273 283 292 300 297 291 302 302 308 310 314 318 316 316 311 317 315 313 316 318 318 316
262 258 262 266 269 271 269 273 271 269 268 262 260 257 252 249 253 251 253 259 272 265 274 285 297 293 295 289 299 308 309 313 316 314 311 315 315 314 315 316 315 315 312
258 254 260 263 264 267 268 269 269 267 265 264 262 258 254 246 240 256 257 243 246 243 237 251 285 287 286 296 300 301 312 313 308 309 312 312 312 314 316 315 315 315 316
263 259 257 259 262 265 267 268 268 267 259 262 278 250 243 241 239 240 244 267 247 241 262 271 281 283 289 292 295 309 312 310 311 313 309 311 314 314 315 317 317 319 319
268 262 267 266 270 274 278 283 287 282 277 295 249 289 282 287 299 270 264 262 270 273 263 270 275 288 287 294 305 308 311 310 308 314 315 320 320 321 322 322 322 321 321
261 266 267 275 274 276 271 278 281 246 263 215 264 278 297 269 287 276 266 294 282 275 265 265 273 275 287 295 299 301 307 313 316 323 323 323 322 323 324 324 325 324 324
266 261 256 276 285 263 269 249 256 261 245 183 168 242 257 266 290 280 291 292 277 267 256 260 271 282 289 295 304 310 314 318 320 321 322 321 322 324 323 323 324 325 324
233 235 270 249 260 264 257 246 265 253 257 277 262 291 350 4 292 296 307 301 300 304 295 290 290 292 297 303 310 317 319 321 322 320 317 315 324 327 326 326 326 325 322
153 174 155 161 184 222 207 198 189 173 146 148 108 92 23 339 313 321 320 314 314 312 308 302 300 303 310 315 317 321 324 324 324 325 318 317 323 325 325 325 324 322 318
150 154 153 175 168 160 143 145 126 99 82 78 35 354 347 337 333 327 322 325 328 327 326 323 318 317 317 319 323 324 323 330 328 327 320 321 323 327 327 324 323 320 317
149 139 134 136 137 129 126 115 115 107 37 339 346 343 341 339 339 340 338 337 336 331 326 321 319 321 323 326 332 337 336 335 331 324 321 327 324 327 329 328 327 322 319
120 116 117 115 120 134 124 114 54 10 355 351 348 346 348 347 343 338 338 332 331 334 335 334 335 333 333 335 335 336 335 338 339 331 323 333 326 327 332 334 332 322 330
110 110 107 102 99 94 67 39 15 360 352 347 347 345 342 340 338 337 337 333 339 342 337 336 335 334 332 332 334 335 335 335 333 332 326 325 328 327 332 336 335 320 335
101 93 85 76 63 53 38 23 4 348 340 332 327 327 327 332 334 336 335 338 337 335 336 333 334 334 331 329 333 332 331 330 328 326 328 322 331 328 331 338 346 334 336
96 83 70 54 38 22 6 349 331 327 316 316 319 325 332 336 342 339 335 334 334 333 333 330 329 330 329 325 326 327 326 327 327 331 331 325 330 327 329 336 339 338 336
76 34 1 340 330 326 320 310 307 315 318 322 327 332 335 330 329 339 341 334 333 328 326 324 325 325 324 322 324 326 327 326 325 329 333 324 327 334 329 324 325 335 334